[Date Prev][Date Next][Thread Prev][Thread Next] - [Date Index][Thread Index][Author Index]
2 LIne ISS Keps 7-31
- Subject: [sarex] 2 LIne ISS Keps 7-31
- From: "Dave Larsen PhD" <doc@xxxxxxxxxxx>
- Date: Wed, 31 Jul 2002 02:26:24 -0700
ISS
1 25544U 98067A 02212.12402443 .00020085 00000-0 25269-3 0 7133
2 25544 51.6361 192.3382 0008982 56.5257 37.3708 15.59606532210888
----
Via the sarex mailing list at AMSAT.ORG courtesy of AMSAT-NA.
To unsubscribe, send "unsubscribe sarex" to Majordomo@amsat.org
AMSAT Home